TimePST,TemperatureF,Dew PointF,Humidity,Sea Level PressureIn,VisibilityMPH,Wind Direction,Wind SpeedMPH,Gust SpeedMPH,PrecipitationIn,Events,Conditions,WindDirDegrees,DateUTC
12:53 AM,37.9,32.0,79,30.22,10.0,NNE,4.6,-,N/A,,Clear,20,2013-02-14 08:53:00
1:53 AM,36.0,30.9,82,30.22,10.0,ENE,3.5,-,N/A,,Clear,60,2013-02-14 09:53:00
2:53 AM,33.1,28.9,85,30.21,10.0,Calm,Calm,-,N/A,,Clear,0,2013-02-14 10:53:00
3:53 AM,34.0,30.0,85,30.21,9.0,Calm,Calm,-,N/A,,Clear,0,2013-02-14 11:53:00
4:53 AM,33.1,30.0,89,30.22,9.0,Calm,Calm,-,N/A,,Clear,0,2013-02-14 12:53:00
5:53 AM,30.9,28.0,89,30.22,7.0,Calm,Calm,-,N/A,,Clear,0,2013-02-14 13:53:00
6:53 AM,30.0,28.0,92,30.22,6.0,Calm,Calm,-,N/A,,Clear,0,2013-02-14 14:53:00
7:53 AM,33.1,30.0,89,30.23,7.0,Calm,Calm,-,N/A,,Clear,0,2013-02-14 15:53:00
8:53 AM,44.1,35.1,71,30.24,10.0,North,3.5,-,N/A,,Clear,10,2013-02-14 16:53:00
9:53 AM,48.9,36.0,61,30.23,10.0,North,4.6,-,N/A,,Clear,360,2013-02-14 17:53:00
10:53 AM,55.0,39.0,55,30.22,10.0,NW,6.9,-,N/A,,Clear,320,2013-02-14 18:53:00
11:53 AM,66.0,36.0,33,30.19,10.0,ENE,12.7,-,N/A,,Clear,70,2013-02-14 19:53:00
12:53 PM,69.1,35.1,29,30.15,10.0,ENE,11.5,-,N/A,,Clear,60,2013-02-14 20:53:00
1:53 PM,70.0,35.1,28,30.12,10.0,East,10.4,-,N/A,,Clear,90,2013-02-14 21:53:00
2:53 PM,71.1,35.1,27,30.12,10.0,ENE,10.4,-,N/A,,Clear,60,2013-02-14 22:53:00
3:53 PM,70.0,36.0,29,30.12,10.0,East,8.1,-,N/A,,Clear,90,2013-02-14 23:53:00
4:53 PM,66.9,36.0,32,30.12,10.0,East,10.4,-,N/A,,Clear,80,2013-02-15 00:53:00
5:53 PM,61.0,37.0,41,30.15,10.0,East,6.9,-,N/A,,Clear,90,2013-02-15 01:53:00
6:53 PM,55.9,37.0,49,30.17,10.0,SSE,3.5,-,N/A,,Clear,150,2013-02-15 02:53:00
7:53 PM,54.0,37.0,53,30.19,10.0,East,4.6,-,N/A,,Clear,100,2013-02-15 03:53:00
8:53 PM,50.0,37.9,63,30.21,10.0,Calm,Calm,-,N/A,,Clear,0,2013-02-15 04:53:00
9:53 PM,46.9,36.0,66,30.23,10.0,SE,4.6,-,N/A,,Clear,140,2013-02-15 05:53:00
10:53 PM,48.0,37.0,66,30.24,10.0,Calm,Calm,-,N/A,,Clear,0,2013-02-15 06:53:00
11:53 PM,42.1,35.1,76,30.24,10.0,Calm,Calm,-,N/A,,Clear,0,2013-02-15 07:53:00